Stations météo

Publicité
Nancy/Ochey, France (7181): Température de l'air & dewpoint: 20.05.2019 09:00:00 - 26.05.2019 09:00:00 (CEST)Nancy/Ochey, France (7181): Température de l'air 5cm: 20.05.2019 09:00:00 - 26.05.2019 09:00:00 (CEST)Nancy/Ochey, France (7181): Température de l'air -20cm: 20.05.2019 09:00:00 - 26.05.2019 09:00:00 (CEST)Nancy/Ochey, France (7181): Vitesse du vent & gusts: 20.05.2019 09:00:00 - 26.05.2019 09:00:00 (CEST)Nancy/Ochey, France (7181): Direction du vent: 20.05.2019 09:00:00 - 26.05.2019 09:00:00 (CEST)Nancy/Ochey, France (7181): reduced air pressure: 20.05.2019 09:00:00 - 26.05.2019 09:00:00 (CEST)Nancy/Ochey, France (7181): visibility: 20.05.2019 09:00:00 - 26.05.2019 09:00:00 (CEST)Nancy/Ochey, France (7181): Quantités de précipitations: 20.05.2019 09:00:00 - 26.05.2019 09:00:00 (CEST)
Date & Time tt [°C] td [°C] tt 5cm [°C] tt -20cm [°C] ff [km/h] ff [knt] fx [km/h] fx [knt] dd ppp [hPa] vv [km] rr [mm]
26.05.2019 09:00:00 14,3 10,5 17,4 14,5 5 3 10 5 WSW 1018,5 20 0,0
26.05.2019 08:00:00 11,9 8,7 10,3 14,6 5 3 9 5 SW 1018,7 31 0,0
26.05.2019 07:00:00 9,1 7,5 5,8 14,7 5 3 10 6 SW 1019,1 37 0,0
26.05.2019 06:00:00 7,7 6,5 5,1 14,7 7 4 9 5 SW 1019,1 42 0,0
26.05.2019 05:00:00 7,6 6,2 5,3 14,8 6 3 10 6 SW 1019,1 51 0,0
26.05.2019 04:00:00 8,2 6,2 5,7 14,8 8 4 10 5 SW 1019,2 58 0,0
26.05.2019 03:00:00 8,2 6,3 2,3 14,8 4 2 9 5 SSW 1019,2 60 0,0
26.05.2019 02:00:00 9,0 6,6 2,1 14,8 7 4 10 5 WNW 1019,2 60 0,0
26.05.2019 01:00:00 9,5 6,9 3,1 14,8 4 2 12 7 W 1019,5 60 0,0
26.05.2019 00:00:00 10,1 6,8 6,7 14,8 8 5 16 9 NW 1019,4 60 0,0
25.05.2019 23:00:00 11,2 7,5 9,0 14,8 9 5 16 9 WNW 1019,1 60 0,0
25.05.2019 22:00:00 13,2 8,7 10,3 14,7 9 5 16 9 WNW 1018,5 60 0,0
25.05.2019 21:00:00 15,0 8,9 14,0 14,7 7 4 23 13 WNW 1017,7 60 0,0
25.05.2019 20:00:00 16,7 8,4 16,4 14,6 11 6 26 14 WNW 1017,4 43 0,0
25.05.2019 19:00:00 17,0 9,9 18,6 14,6 18 10 34 18 NW 1017,1 54 0,0
25.05.2019 18:00:00 16,9 10,0 18,3 14,5 17 9 41 22 NW 1016,8 48 0,0
25.05.2019 17:00:00 18,2 8,7 19,9 14,5 22 12 36 19 NNW 1016,5 28 0,0
25.05.2019 16:00:00 21,3 7,9 26,6 14,4 20 11 34 19 N 1015,7 60 0,0
25.05.2019 15:00:00 20,4 6,7 24,8 14,4 18 10 34 19 N 1016,2 20 0,0
25.05.2019 14:00:00 20,1 4,1 26,1 14,4 18 10 32 18 NNW 1016,4 45 0,0
25.05.2019 13:00:00 19,8 6,5 24,3 14,4 15 8 30 16 NW 1016,7 40 0,0
25.05.2019 12:00:00 17,8 7,5 21,5 14,4 13 7 23 13 N 1017,3 19 0,0
25.05.2019 11:00:00 16,0 7,2 18,8 14,5 12 6 20 11 N 1017,5 20 0,0
25.05.2019 10:00:00 14,0 8,0 15,8 14,5 13 7 24 13 NNW 1017,6 20 0,0
25.05.2019 09:00:00 13,7 8,1 16,3 14,6 12 6 17 9 N 1017,3 38 0,0
25.05.2019 08:00:00 12,7 7,8 12,6 14,6 7 4 11 6 NNW 1016,8 38 0,0
25.05.2019 07:00:00 11,5 7,6 6,1 14,7 10 5 14 8 NNW 1016,7 34 0,0
25.05.2019 06:00:00 10,3 7,4 5,7 14,7 6 3 11 6 N 1016,6 29 0,0
25.05.2019 05:00:00 11,1 8,0 7,5 14,7 5 3 16 9 NW 1016,3 28 0,0
25.05.2019 04:00:00 11,2 7,7 3,8 14,8 9 5 16 8 NNW 1016,1 34 0,0
25.05.2019 03:00:00 11,3 7,8 4,4 14,7 6 3 10 5 NW 1016,1 20 0,0
25.05.2019 02:00:00 13,0 8,3 5,4 14,7 2 1 7 4 W 1015,6 49 0,0
25.05.2019 01:00:00 12,8 8,3 5,8 14,7 3 2 11 6 W 1015,9 54 0,0
25.05.2019 00:00:00 13,3 7,9 5,9 14,7 8 4 11 6 NW 1015,9 60 0,0
24.05.2019 23:00:00 14,4 7,7 7,6 14,6 7 4 16 9 WNW 1015,5 57 0,0
24.05.2019 22:00:00 15,9 8,1 8,4 14,6 9 5 16 8 NW 1015,0 59 0,0
24.05.2019 21:00:00 18,6 7,7 13,1 14,5 6 4 16 9 N 1014,2 60 0,0
24.05.2019 20:00:00 19,9 8,9 19,2 14,4 8 5 23 12 NNW 1013,6 58 0,0
24.05.2019 19:00:00 20,5 7,5 20,8 14,3 14 8 22 12 NNW 1013,4 54 0,0
24.05.2019 18:00:00 22,2 8,3 25,1 14,2 14 8 25 14 NNW 1013,4 41 0,0
24.05.2019 17:00:00 23,5 9,1 25,2 14,1 11 6 23 12 NNW 1013,5 28 0,0
24.05.2019 16:00:00 22,4 7,8 25,4 14,1 8 5 22 12 NNW 1014,1 33 0,0
24.05.2019 15:00:00 22,0 6,6 25,2 14,0 9 5 17 9 NW 1014,2 41 0,0
24.05.2019 14:00:00 22,4 8,5 24,8 14,0 9 5 18 10 W 1014,5 43 0,0
24.05.2019 13:00:00 21,0 6,9 24,8 14,0 5 3 19 10 ENE 1014,8 20 0,0
24.05.2019 12:00:00 19,9 6,9 24,2 14,0 10 5 19 10 NNW 1015,2 37 0,0
24.05.2019 11:00:00 20,6 7,6 28,3 14,0 8 4 16 8 N 1015,2 19 0,0
24.05.2019 10:00:00 19,6 7,7 25,5 14,1 5 3 10 5 N 1015,4 44 0,0
24.05.2019 09:00:00 16,8 8,5 20,3 14,1 4 2 9 5 N 1015,8 30 0,0
24.05.2019 08:00:00 13,5 8,3 12,5 14,2 3 1 6 3 W 1016,2 19 0,0
24.05.2019 07:00:00 10,2 7,8 3,7 14,2 2 1 4 2 NW 1016,3 17 0,0
24.05.2019 06:00:00 8,5 5,9 2,8 14,2 2 1 8 5 ESE 1016,5 19 0,0
24.05.2019 05:00:00 9,0 6,1 3,6 14,2 3 2 8 5 SSW 1016,1 25 0,0
24.05.2019 04:00:00 10,4 6,5 4,5 14,2 4 2 8 4 W 1016,1 31 0,0
24.05.2019 03:00:00 11,1 6,8 5,7 14,2 7 4 9 5 ENE 1016,2 34 0,0
24.05.2019 02:00:00 13,0 6,3 7,3 14,2 2 1 5 3 NW 1016,4 41 0,0
24.05.2019 01:00:00 13,2 6,8 9,4 14,2 3 2 10 6 WNW 1016,6 40 0,0
24.05.2019 00:00:00 14,7 6,8 11,4 14,1 8 4 11 6 ENE 1016,5 46 0,0
23.05.2019 23:00:00 15,3 6,8 9,9 14,0 7 4 10 6 ENE 1016,6 54 0,0
23.05.2019 22:00:00 16,1 7,0 11,4 13,9 8 4 11 6 E 1016,5 52 0,0
23.05.2019 21:00:00 17,4 7,2 16,4 13,8 7 4 13 7 NE 1016,3 59 0,0
23.05.2019 20:00:00 18,8 6,9 18,5 13,7 9 5 17 9 NE 1015,8 56 0,0
23.05.2019 19:00:00 19,9 6,9 20,2 13,6 8 4 16 9 NNE 1015,9 60 0,0
23.05.2019 18:00:00 21,2 7,1 21,6 13,5 10 6 24 13 NNE 1015,8 49 0,0
23.05.2019 17:00:00 21,4 6,5 27,5 13,3 7 4 25 13 N 1016,3 42 0,0
23.05.2019 16:00:00 21,0 6,1 26,8 13,3 12 6 29 16 ESE 1016,7 59 0,0
23.05.2019 15:00:00 21,0 5,7 27,3 13,2 10 6 27 15 NE 1017,1 20 0,0
23.05.2019 14:00:00 20,2 6,2 25,5 13,2 12 6 27 15 E 1017,6 34 0,0
23.05.2019 13:00:00 19,6 5,3 22,1 13,2 11 6 26 14 ESE 1018,3 33 0,0
23.05.2019 12:00:00 19,4 5,1 24,1 13,2 6 3 20 11 E 1018,8 52 0,0
23.05.2019 11:00:00 18,5 5,7 24,8 13,3 10 6 16 9 E 1019,1 45 0,0
23.05.2019 10:00:00 17,1 8,0 23,2 13,3 5 3 11 6 E 1019,4 20 0,0
23.05.2019 09:00:00 15,4 8,2 18,9 13,4 4 2 9 5 ENE 1019,5 17 0,0
23.05.2019 08:00:00 12,7 6,9 12,5 13,4 0 0 4 2 N 1019,8 40 0,0
23.05.2019 07:00:00 9,0 6,3 4,5 13,5 2 1 8 4 NW 1020,2 38 0,0
23.05.2019 06:00:00 7,7 5,2 1,5 13,5 5 3 6 3 SE 1020,3 36 0,0
23.05.2019 05:00:00 8,3 5,2 2,3 13,6 0 0 3 2 N 1020,3 43 0,0
23.05.2019 04:00:00 8,2 5,0 2,4 13,6 3 1 5 3 E 1020,6 50 0,0
23.05.2019 03:00:00 9,0 5,2 3,4 13,6 4 2 6 3 SW 1020,7 54 0,0
23.05.2019 02:00:00 9,2 5,0 3,2 13,6 3 2 5 3 SW 1020,9 57 0,0
23.05.2019 01:00:00 9,4 4,8 3,3 13,6 2 1 4 2 WSW 1021,1 50 0,0
23.05.2019 00:00:00 10,3 5,1 3,9 13,5 3 2 5 3 W 1020,8 60 0,0
22.05.2019 23:00:00 12,1 4,6 4,4 13,5 4 2 6 4 NW 1020,7 58 0,0
22.05.2019 22:00:00 12,5 4,5 5,0 13,4 5 3 11 6 NNE 1020,3 59 0,0
22.05.2019 21:00:00 15,0 3,2 7,9 13,4 6 3 9 5 N 1019,7 60 0,0
22.05.2019 20:00:00 16,4 4,4 14,3 13,2 7 4 22 12 NNW 1019,4 59 0,0
22.05.2019 19:00:00 18,6 5,1 18,7 13,2 13 7 26 14 NNW 1019,0 53 0,0
22.05.2019 18:00:00 19,6 2,9 25,0 13,0 13 7 27 15 NNW 1019,1 52 0,0
22.05.2019 17:00:00 19,5 3,6 26,6 12,9 16 8 33 18 N 1019,2 47 0,0
22.05.2019 16:00:00 19,3 2,2 27,3 12,9 14 7 32 17 N 1019,4 47 0,0
22.05.2019 15:00:00 18,7 2,5 26,2 12,9 19 10 37 20 NW 1019,4 39 0,0
22.05.2019 14:00:00 18,4 3,8 26,3 12,8 16 9 36 19 NNE 1019,7 57 0,0
22.05.2019 13:00:00 17,5 3,4 24,9 12,8 20 11 41 22 NNW 1019,8 53 0,0
22.05.2019 12:00:00 16,8 5,1 23,4 12,9 16 9 33 18 NW 1020,0 20 0,0
22.05.2019 11:00:00 15,6 6,3 23,9 12,9 12 7 35 19 NW 1020,0 20 0,0
22.05.2019 10:00:00 14,3 6,9 19,4 12,9 14 8 27 14 NW 1020,1 20 0,0
22.05.2019 09:00:00 12,4 6,7 14,7 13,0 5 3 11 6 WNW 1020,3 31 0,0
22.05.2019 08:00:00 10,1 7,7 7,9 13,1 5 3 8 4 WSW 1020,3 19 0,0
22.05.2019 07:00:00 6,8 5,4 4,5 13,2 6 4 9 5 SW 1020,7 14 0,0
22.05.2019 06:00:00 6,8 5,6 3,7 13,2 7 4 9 5 SW 1020,4 11 0,0
22.05.2019 05:00:00 7,2 6,0 1,7 13,2 5 3 8 4 SW 1020,0 11 0,0
22.05.2019 04:00:00 7,9 6,7 1,4 13,3 4 2 5 3 WSW 1019,9 16 0,0
22.05.2019 03:00:00 8,4 7,5 1,6 13,3 2 1 6 3 SSW 1019,6 11 0,0
22.05.2019 02:00:00 9,1 8,5 2,1 13,3 4 2 9 5 N 1019,5 3,7 0,0
22.05.2019 01:00:00 9,6 8,0 3,9 13,2 4 2 9 5 NNE 1019,2 7 0,0
22.05.2019 00:00:00 11,0 8,9 6,4 13,2 7 4 11 6 ESE 1018,8 12 0,0
21.05.2019 23:00:00 12,2 7,7 5,5 13,1 8 5 13 7 NNE 1018,4 39 0,0
21.05.2019 22:00:00 14,6 7,9 11,7 13,1 10 5 15 8 N 1017,6 53 0,0
21.05.2019 21:00:00 16,0 8,0 15,3 13,0 11 6 25 14 N 1016,7 56 0,0
21.05.2019 20:00:00 16,6 8,3 16,5 13,0 13 7 32 17 NNW 1016,0 58 0,0
21.05.2019 19:00:00 17,3 7,9 18,0 12,9 18 10 31 17 NNW 1015,5 43 0,0
21.05.2019 18:00:00 17,7 8,3 18,6 12,9 14 7 36 19 NW 1015,0 48 0,0
21.05.2019 17:00:00 17,7 8,8 18,7 12,8 14 8 39 21 NW 1014,8 42 0,0
21.05.2019 16:00:00 18,4 9,2 20,3 12,8 24 13 41 22 WNW 1014,5 20 0,0
21.05.2019 15:00:00 18,0 9,6 20,6 12,8 22 12 40 22 WNW 1014,4 20 0,0
21.05.2019 14:00:00 18,1 10,0 21,6 12,8 25 13 42 23 WNW 1014,2 9 0,0
21.05.2019 13:00:00 15,7 9,6 15,9 12,8 23 12 39 21 WNW 1014,5 9 0,0
21.05.2019 12:00:00 13,2 9,1 13,6 12,8 23 12 41 22 WNW 1014,6 9 0,0
21.05.2019 11:00:00 11,1 8,5 12,1 12,9 16 9 35 19 WNW 1014,8 10 0,0
21.05.2019 10:00:00 10,7 8,6 10,5 12,9 19 10 32 18 WNW 1014,5 8 0,0
21.05.2019 09:00:00 10,0 7,9 10,4 12,9 17 9 29 16 W 1014,3 9 0,0
21.05.2019 08:00:00 10,5 8,6 9,8 13,0 18 10 29 16 W 1013,7 9 0,0
21.05.2019 07:00:00 10,5 8,9 10,3 12,9 16 8 31 17 WNW 1013,1 7 0,0
21.05.2019 06:00:00 10,5 9,1 10,1 13,0 13 7 24 13 W 1012,7 7 0,0
21.05.2019 05:00:00 10,4 9,0 10,1 13,0 13 7 26 14 W 1012,6 7 0,0
21.05.2019 04:00:00 10,5 8,9 10,1 13,0 18 10 32 17 WNW 1012,8 6 0,0
21.05.2019 03:00:00 10,6 9,0 10,2 13,0 13 7 26 14 WNW 1012,7 7 0,0
21.05.2019 02:00:00 10,7 9,5 10,2 13,1 12 6 25 13 WNW 1012,5 4,8 0,0
21.05.2019 01:00:00 10,8 9,6 10,5 13,1 13 7 24 13 W 1012,4 4,4 0,0
21.05.2019 00:00:00 11,1 9,5 10,7 13,1 14 8 27 15 W 1012,5 6 0,0
20.05.2019 23:00:00 11,1 9,5 10,7 13,1 16 8 23 13 W 1012,2 7 0,0
20.05.2019 22:00:00 11,1 9,4 10,8 13,1 13 7 26 14 W 1011,7 8 0,0
20.05.2019 21:00:00 11,3 9,2 11,1 13,1 14 8 34 18 WNW 1010,9 10 0,0
20.05.2019 20:00:00 11,4 9,6 11,4 13,1 18 10 31 17 W 1010,6 7 0,0
20.05.2019 19:00:00 11,6 10,0 11,9 13,1 18 10 33 18 W 1010,3 7 0,0
20.05.2019 18:00:00 12,2 10,3 12,5 13,1 15 8 35 19 WNW 1009,9 9 0,0
20.05.2019 17:00:00 12,4 10,6 13,2 13,0 21 11 37 20 WNW 1009,6 7 0,0
20.05.2019 16:00:00 13,3 10,7 13,7 13,0 17 9 34 18 W 1009,2 10 0,0
20.05.2019 15:00:00 13,0 10,9 13,8 13,0 18 10 32 18 WNW 1009,2 7 0,0
20.05.2019 14:00:00 13,1 11,0 14,8 13,0 19 11 36 19 W 1008,7 8 0,0
20.05.2019 13:00:00 14,1 10,9 14,7 13,0 20 11 32 17 W 1008,1 6 0,0
20.05.2019 12:00:00 13,0 11,1 14,0 13,1 16 9 29 16 WNW 1008,0 4,2 0,0
20.05.2019 11:00:00 13,2 10,7 14,7 13,1 16 9 28 15 WNW 1007,8 7 0,0
20.05.2019 10:00:00 12,9 10,8 14,4 13,1 14 8 28 15 WNW 1007,4 6 0,0
20.05.2019 09:00:00 12,7 11,1 12,7 13,1 17 9 29 16 NW 1007,1 4,7 0,0

tt = Température de l'air
td = dewpoint
tt 5cm = Température de l'air 5cm
tt -20cm = Température de l'air -20cm
ff = Vitesse du vent
fx = gusts
dd = Direction du vent
ppp = reduced air pressure
vv = visibility
rr = Quantités de précipitations

stations d'obs. à proximité